Home   Weather   Naha   Past weeks

Flag for Japan Past Weather in Naha, Okinawa, Japan — Yesterday and Last 2 Weeks

Now
64 °F

Passing clouds.


Feels Like: 64 °F
Forecast: 57 / 61 °F
Wind: 7 mph from Northeast

Location: Naha Airport

Current Time: Feb 28, 2017 at 7:05:49 pm

Latest Report: Feb 28, 2017 at 6:30 pm


Visibility: N/A

Pressure: 30.09 "Hg

Humidity: 49%

Dew Point: 45 °F

Location of NahaLocation

Past Weather in Naha — Graph

°F

Naha Temperature Yesterday

Maximum temperature yesterday: 68 °F (at 11:00 am)
Minimum temperature yesterday: 59 °F (at 3:00 am)
Average temperature yesterday: 63 °F

High & Low Weather Summary for the Past Weeks

 TemperatureHumidityPressure
High75 °F (Feb 17, 11:30 am)94% (Feb 23, 12:30 am)30.45 "Hg (Feb 23, 12:30 am)
Low55 °F (Feb 15, 7:00 am)35% (Feb 14, 11:30 am)29.92 "Hg (Feb 23, 3:30 am)
Average64 °F66%30.15 "Hg
* Reported Feb 13 5:00 pm — Feb 28 5:30 pm, Naha, Weather by CustomWeather, © 2017

Note: Actual official high and low records may vary slightly from our data, if they occured in-between our weather recording intervals... More about our weather records

Advertising

Naha Weather History for the Previous 24 Hours

Scroll right to see more
 ConditionsComfort  
Time TempWeatherWind HumidityBarometerVisibility
5:30 pm
Tue, Feb 28
64 °FPartly sunny.7 mph49%30.09 "HgN/A
5:00 pm64 °FPartly sunny.6 mph49%30.09 "HgN/A
4:30 pm64 °FPartly sunny.8 mph49%30.09 "HgN/A
4:00 pm64 °FPartly sunny.3 mph49%30.09 "HgN/A
3:30 pm64 °FSunny.5 mph46%30.09 "Hg10 mi
3:00 pm64 °FPassing clouds.5 mph46%30.09 "HgN/A
2:30 pm64 °FPassing clouds.6 mph46%30.12 "HgN/A
2:00 pm64 °FSunny.5 mph49%30.12 "Hg10 mi
1:30 pm64 °FPassing clouds.5 mph46%30.12 "HgN/A
1:00 pm64 °FSunny.8 mph46%30.15 "Hg10 mi
12:30 pm64 °FBroken clouds.8 mph49%30.15 "HgN/A
12:00 pm64 °FBroken clouds.7 mph46%30.15 "HgN/A
11:30 am64 °FPartly sunny.5 mph49%30.18 "HgN/A
11:00 am63 °FPartly sunny.5 mph52%30.18 "HgN/A
10:30 am63 °FPassing clouds.6 mph49%30.18 "HgN/A
10:00 am63 °FPassing clouds.7 mph52%30.18 "HgN/A
9:30 am63 °FPartly sunny.8 mph52%30.18 "HgN/A
9:00 am61 °FPartly sunny.8 mph55%30.18 "HgN/A
8:30 am61 °FBroken clouds.7 mph55%30.18 "HgN/A
8:00 am61 °FPartly sunny.8 mph59%30.18 "HgN/A
7:30 am61 °FPartly sunny.9 mph55%30.18 "HgN/A
7:00 am61 °FPartly sunny.9 mph55%30.18 "HgN/A
6:30 am61 °FPassing clouds.9 mph59%30.18 "HgN/A
6:00 am61 °FPassing clouds.7 mph59%30.18 "HgN/A
5:30 am61 °FPassing clouds.7 mph59%30.15 "HgN/A
5:00 am61 °FPassing clouds.6 mph59%30.15 "HgN/A
4:30 am61 °FPassing clouds.7 mph59%30.15 "Hg6 mi
4:00 am61 °FPassing clouds.6 mph59%30.15 "Hg5 mi
3:30 am61 °FPassing clouds.7 mph59%30.15 "Hg5 mi
3:00 am61 °FPassing clouds.6 mph59%30.18 "Hg5 mi
2:30 am59 °FPassing clouds.7 mph63%30.18 "Hg5 mi
2:00 am61 °FPassing clouds.5 mph59%30.18 "Hg5 mi
1:30 am61 °FPassing clouds.6 mph59%30.18 "Hg5 mi
1:00 am61 °FPassing clouds.7 mph59%30.18 "Hg5 mi
12:30 am61 °FPassing clouds.7 mph59%30.18 "Hg5 mi
12:00 am61 °FPassing clouds.9 mph59%30.18 "Hg5 mi
11:30 pm
Mon, Feb 27
61 °FPassing clouds.6 mph59%30.18 "Hg5 mi
11:00 pm61 °FPassing clouds.7 mph59%30.21 "Hg5 mi
10:30 pm61 °FPassing clouds.10 mph63%30.18 "Hg5 mi
10:00 pm63 °FPassing clouds.10 mph59%30.18 "Hg5 mi
9:30 pm63 °FPassing clouds.8 mph59%30.21 "Hg5 mi
9:00 pm63 °FPassing clouds.10 mph56%30.21 "Hg4 mi
8:30 pm63 °FPassing clouds.12 mph59%30.18 "Hg5 mi
8:00 pm63 °FPartly cloudy.10 mph56%30.18 "Hg5 mi
7:30 pm63 °FPartly cloudy.12 mph59%30.18 "Hg6 mi
7:00 pm63 °FPassing clouds.15 mph59%30.15 "HgN/A
Weather by CustomWeather, © 2017

See weather overviewHow to use our weather pages